DW3762 Weather Reports


time (UTC)temp
C
wind
direction
speed
KPH
gust
KPH
rain 1hr
cm
rain 24hr
cm
rain mn
cm
humidity
%
barometer
mb
20260505153006 13 239 3.2 11.3 0.00 0.00 0.00 83 1015.6
20260505151503 13 249 1.6 8.0 0.00 0.00 0.00 84 1015.6
20260505124552 12 250 0.0 4.8 0.00 0.00 0.00 85 1014.5
20260505123047 12 204 0.0 6.4 0.00 0.00 0.00 85 1014.5
20260505121546 12 287 1.6 4.8 0.00 0.00 0.00 85 1014.4
20260505120049 12 221 3.2 8.0 0.00 0.00 0.00 85 1014.4
20260505114547 12 244 1.6 4.8 0.00 0.00 0.00 85 1014.4
20260505113044 12 237 3.2 6.4 0.00 0.00 0.00 85 1014.3
20260505111544 12 206 0.0 3.2 0.00 0.00 0.00 85 1014.4
20260505101544 12 84 1.6 6.4 0.00 0.00 0.00 85 1013.7
20260505100038 12 108 0.0 3.2 0.00 0.00 0.00 84 1013.9
20260505094535 12 138 0.0 4.8 0.00 0.00 0.00 83 1013.8
20260505093034 12 125 1.6 6.4 0.00 0.00 0.00 83 1013.7
20260505091535 13 215 1.6 8.0 0.00 0.00 0.00 82 1013.6
20260505090040 13 231 1.6 4.8 0.00 0.00 0.00 81 1013.4
20260505084527 13 244 0.0 11.3 0.00 0.00 0.00 80 1013.4
20260505083024 13 268 1.6 9.7 0.00 0.00 0.00 79 1013.4
20260505081522 14 250 3.2 8.0 0.00 0.00 0.00 79 1013.2
20260505080037 14 219 1.6 9.7 0.00 0.00 0.00 78 1013.2
20260505074523 15 233 1.6 6.4 0.00 0.00 0.00 78 1013.0
20260505073027 15 253 3.2 8.0 0.00 0.00 0.00 78 1012.8
20260505071511 15 235 3.2 9.7 0.00 0.00 0.00 77 1012.5
20260505070009 15 244 0.0 3.2 0.00 0.00 0.00 77 1012.5
20260505064508 15 247 1.6 4.8 0.00 0.00 0.00 75 1012.3
20260505063008 16 196 1.6 4.8 0.00 0.00 0.00 74 1012.1
20260505061507 16 158 0.0 9.7 0.00 0.00 0.00 74 1011.9
20260505060009 17 246 0.0 4.8 0.00 0.00 0.00 73 1011.7
20260505054506 17 316 1.6 6.4 0.00 0.00 0.00 72 1011.7
20260505053006 18 285 1.6 9.7 0.00 0.00 0.00 70 1011.4
20260505051509 18 278 3.2 8.0 0.00 0.00 0.00 69 1011.4
20260505041503 20 234 3.2 9.7 0.00 0.00 0.00 70 1010.7
20260505040003 20 242 3.2 11.3 0.00 0.00 0.00 69 1010.4
20260505034502 20 267 3.2 11.3 0.00 0.00 0.00 68 1010.1
20260505033002 21 252 3.2 11.3 0.00 0.00 0.00 67 1009.8
20260505031502 21 168 0.0 4.8 0.00 0.00 0.00 67 1009.6
20260505030002 22 238 3.2 12.9 0.00 0.00 0.00 65 1009.4
20260505024601 22 258 1.6 11.3 0.00 0.00 0.00 63 1009.4
20260505023100 22 254 4.8 12.9 0.00 0.00 0.00 62 1009.3
20260505021600 23 144 1.6 14.5 0.00 0.00 0.00 61 1009.3
20260505020103 23 222 3.2 16.1 0.00 0.00 0.00 61 1009.3
20260505014606 23 108 3.2 14.5 0.00 0.00 0.00 61 1009.3
20260505013058 23 254 3.2 19.3 0.00 0.00 0.00 60 1009.4
20260505011558 23 122 4.8 14.5 0.00 0.00 0.00 59 1009.5
20260505010058 24 146 6.4 16.1 0.00 0.00 0.00 59 1009.6
20260505004558 24 227 4.8 14.5 0.00 0.00 0.00 57 1009.7
20260505003056 24 48 3.2 17.7 0.00 0.00 0.00 57 1009.7
20260505001556 25 219 6.4 16.1 0.00 0.00 0.00 55 1009.8
20260505000057 25 265 3.2 16.1 0.00 0.00 0.00 53 1010.0
20260504234555 25 218 4.8 9.7 0.00 0.00 0.00 53 1009.9
20260504233053 25 169 4.8 17.7 0.00 0.00 0.00 52 1010.0
20260504231557 26 229 3.2 14.5 0.00 0.00 0.00 51 1010.1
20260504230053 25 214 4.8 11.3 0.00 0.00 0.00 52 1010.3
20260504224549 25 152 3.2 17.7 0.00 0.00 0.00 53 1010.5
20260504223047 25 212 3.2 12.9 0.00 0.00 0.00 52 1010.6
20260504221544 24 280 6.4 12.9 0.00 0.00 0.00 53 1010.9
20260504220042 23 251 4.8 14.5 0.00 0.00 0.00 53 1011.0
20260504214537 23 121 6.4 16.1 0.00 0.00 0.00 59 1011.2
20260504213033 22 196 6.4 17.7 0.00 0.00 0.00 56 1011.4
20260504211534 22 223 6.4 16.1 0.00 0.00 0.00 57 1011.6
20260504210039 21 119 4.8 14.5 0.00 0.00 0.00 63 1011.8
20260504204537 21 239 4.8 14.5 0.00 0.00 0.00 60 1012.1
20260504203030 20 250 6.4 17.7 0.00 0.00 0.00 61 1012.2
20260504201528 20 250 1.6 17.7 0.00 0.00 0.00 65 1012.3
20260504200028 19 292 3.2 16.1 0.00 0.00 0.00 64 1012.5
20260504194527 18 294 6.4 14.5 0.00 0.00 0.00 67 1012.6
20260504193027 18 230 3.2 11.3 0.00 0.00 0.00 69 1012.7
20260504191526 17 215 6.4 16.1 0.00 0.00 0.00 69 1012.8
20260504190026 17 100 6.4 14.5 0.00 0.00 0.00 73 1012.8
20260504184526 16 271 6.4 20.9 0.00 0.00 0.00 73 1013.0
20260504183023 16 231 4.8 14.5 0.00 0.00 0.00 75 1013.0
20260504181523 15 94 4.8 17.7 0.00 0.00 0.00 77 1013.0
20260504180023 15 254 4.8 16.1 0.00 0.00 0.00 79 1013.0
20260504174522 15 254 3.2 14.5 0.00 0.00 0.00 79 1013.0
20260504173020 14 219 4.8 17.7 0.00 0.00 0.00 80 1013.0
20260504171520 14 226 6.4 19.3 0.00 0.00 0.00 81 1012.9